DW9837 Weather Reports


Display with metric or nautical units.
time (UTC)temp
F
wind
direction
speed
MPH
gust
MPH
rain 1hr
in
rain 24hr
in
rain mn
in
humidity
%
barometer
mb
20260506024533 59 319 1.0 7.0 0.00 0.00 0.00 76 1012.4
20260506023030 59 272 1.0 5.0 0.00 0.00 0.00 76 1012.2
20260506021529 59 284 2.0 6.0 0.00 0.00 0.00 75 1012.3
20260506020027 59 289 1.0 3.0 0.00 0.00 0.00 75 1012.2
20260506014527 59 336 2.0 10.0 0.00 0.00 0.00 74 1012.1
20260506013037 59 268 2.0 7.0 0.00 0.00 0.00 74 1012.0
20260506011527 59 244 3.0 9.0 0.00 0.00 0.00 74 1011.6
20260506010027 58 216 2.0 6.0 0.00 0.00 0.00 75 1011.7
20260506004523 59 266 3.0 7.0 0.00 0.00 0.00 75 1011.5
20260506003024 59 118 3.0 10.0 0.00 0.00 0.00 74 1011.2
20260506001523 59 291 1.0 7.0 0.00 0.00 0.00 74 1010.9
20260506000023 59 322 4.0 16.0 0.00 0.00 0.00 74 1010.6
20260505234522 59 199 1.0 7.0 0.00 0.00 0.00 74 1010.2
20260505233026 59 149 1.0 6.0 0.00 0.00 0.00 74 1010.3
20260505231523 59 106 1.0 8.0 0.00 0.00 0.00 73 1010.9
20260505230020 60 283 1.0 5.0 0.00 0.00 0.00 72 1010.7
20260505224520 61 293 3.0 11.0 0.00 0.00 0.00 70 1010.6
20260505223019 62 140 3.0 10.0 0.00 0.00 0.00 69 1010.4
20260505221519 61 153 4.0 9.0 0.00 0.00 0.00 68 1010.2
20260505220030 62 308 2.0 11.0 0.00 0.00 0.00 67 1010.2
20260505214522 63 300 2.0 6.0 0.00 0.00 0.00 67 1010.4
20260505213017 64 81 1.0 8.0 0.00 0.00 0.00 65 1010.5
20260505211516 65 198 3.0 8.0 0.00 0.00 0.00 63 1010.0
20260505210015 65 286 4.0 9.0 0.00 0.00 0.00 64 1010.1
20260505204514 66 175 3.0 9.0 0.00 0.00 0.00 63 1009.9
20260505203014 67 313 3.0 10.0 0.00 0.00 0.00 61 1009.9
20260505201512 67 310 3.0 10.0 0.00 0.00 0.00 61 1009.9
20260505200016 66 303 2.0 9.0 0.00 0.00 0.00 62 1010.1
20260505194509 66 252 2.0 12.0 0.00 0.00 0.00 64 1010.2
20260505193007 65 173 4.0 11.0 0.00 0.00 0.00 65 1010.3
20260505191511 66 170 3.0 11.0 0.00 0.00 0.00 65 1010.3
20260505190005 66 178 5.0 10.0 0.00 0.00 0.00 64 1010.4
20260505184502 67 172 2.0 7.0 0.00 0.00 0.00 62 1010.5
20260505183100 66 255 2.0 9.0 0.00 0.00 0.00 65 1010.6
20260505181600 66 230 4.0 9.0 0.00 0.00 0.00 64 1010.7
20260505180059 65 191 4.0 13.0 0.00 0.00 0.00 66 1010.7
20260505174603 65 183 4.0 10.0 0.00 0.00 0.00 66 1010.9
20260505173056 66 182 5.0 10.0 0.00 0.00 0.00 64 1010.9
20260505171554 64 198 4.0 9.0 0.00 0.00 0.00 68 1010.8
20260505170053 65 183 2.0 8.0 0.00 0.00 0.00 66 1010.8
20260505164554 67 229 5.0 10.0 0.00 0.00 0.00 64 1011.1
20260505163053 67 184 2.0 8.0 0.00 0.00 0.00 64 1011.2
20260505161548 66 175 4.0 9.0 0.00 0.00 0.00 67 1011.8
20260505153041 64 154 4.0 11.0 0.00 0.00 0.00 70 1011.9
20260505151538 63 184 4.0 10.0 0.00 0.00 0.00 71 1012.0
20260505124525 60 293 2.0 5.0 0.00 0.00 0.00 77 1011.9
20260505123021 58 294 0.0 6.0 0.00 0.00 0.00 81 1011.9
20260505121530 57 153 0.0 3.0 0.00 0.00 0.00 83 1011.9
20260505120018 56 269 0.0 4.0 0.00 0.00 0.00 84 1012.0
20260505114516 57 144 0.0 3.0 0.00 0.00 0.00 83 1011.8
20260505113013 56 163 1.0 4.0 0.00 0.00 0.00 85 1011.7
20260505111510 55 191 1.0 4.0 0.00 0.00 0.00 87 1011.6
20260505101559 49 173 0.0 0.0 0.00 0.00 0.00 94 1011.0
20260505100056 48 172 0.0 0.0 0.00 0.00 0.00 94 1010.9
20260505094614 48 173 0.0 0.0 0.00 0.00 0.00 95 1010.9
20260505093058 47 172 0.0 0.0 0.00 0.00 0.00 94 1011.0
20260505091604 47 172 0.0 0.0 0.00 0.00 0.00 95 1011.0
20260505090058 47 172 0.0 0.0 0.00 0.00 0.00 94 1010.9
20260505084555 47 172 0.0 0.0 0.00 0.00 0.00 93 1011.0
20260505083058 48 172 0.0 0.0 0.00 0.00 0.00 94 1010.7
20260505081556 48 172 0.0 0.0 0.00 0.00 0.00 94 1010.7
20260505080050 48 172 0.0 0.0 0.00 0.00 0.00 93 1010.9
20260505074544 48 172 0.0 0.0 0.00 0.00 0.00 94 1011.0
20260505073045 48 172 0.0 0.0 0.00 0.00 0.00 93 1011.0
20260505071548 47 172 0.0 0.0 0.00 0.00 0.00 93 1010.9
20260505070041 48 172 0.0 0.0 0.00 0.00 0.00 92 1011.1
20260505064543 48 172 0.0 0.0 0.00 0.00 0.00 93 1011.0
20260505063040 47 172 0.0 0.0 0.00 0.00 0.00 92 1011.1
20260505061538 47 172 0.0 0.0 0.00 0.00 0.00 91 1011.2
20260505060038 48 172 0.0 0.0 0.00 0.00 0.00 91 1011.4
20260505054536 48 172 0.0 0.0 0.00 0.00 0.00 90 1011.5
20260505053035 49 172 0.0 0.0 0.00 0.00 0.00 90 1011.4
20260505051530 49 172 0.0 0.0 0.00 0.00 0.00 91 1011.5
20260505041522 49 172 0.0 0.0 0.00 0.00 0.00 88 1012.0
20260505040022 49 172 0.0 0.0 0.00 0.00 0.00 87 1011.9
20260505034523 50 172 0.0 0.0 0.00 0.00 0.00 85 1011.9
20260505033029 50 172 0.0 0.0 0.00 0.00 0.00 85 1012.1
20260505031517 50 172 0.0 2.0 0.00 0.00 0.00 84 1012.0
20260505030017 50 115 0.0 0.0 0.00 0.00 0.00 84 1012.1